User: anonymous   Login
Location: Sankt Anna
(58.3452°N, 16.7040°E)
Time: 10:14:32
(UTC+02:00)
Language:

PCSat - Orbit

View from above orbital plane
View from above orbital plane
View from above satellite
View from above satellite

Ground track
Ground track

The orbit data is extracted from the following two-line orbital elements,

1 26931U 01043C   19143.14297956 -.00000024  00000-0  22713-4 0  9996
2 26931  67.0521  72.1880 0006387 279.9208  80.1172 14.30542304921176
Epoch (UTC): 23 May 2019 03:25:53
Eccentricity: 0.0006387
inclination: 67.0521°
perigee height: 785 km
apogee height: 794 km
right ascension of ascending node: 72.1880°
argument of perigee: 279.9208°
revolutions per day: 14.30542304
mean anomaly at epoch: 80.1172°
orbit number at epoch: 92117

The dashed part of the orbit path shows where the satellite is in the earth's shadow,  

DLR